カタログに戻る

FENGYUN 1C DEB

運用中SSO
NORAD 33747·DEBRIS·🇨🇳 China

打ち上げ May 10, 1999 から Taiyuan Satellite Launch Center

Loading…

次のパス (今後24時間)

TLE

最新Source: Space-Track

元期: Sep 11, 2026, 17:52 UTC

1 33747U 99025DJL 26254.74467705  .00003076  00000-0  14260-2 0  9999
2 33747  99.0968   1.2847 0088712 163.2178 197.1965 14.19440747940038

AllMySatでFENGYUN 1C DEBをリアルタイム追跡

Download on the App Store